SCP
4 3 3 3 3 3 2 2 1 1 1 1 1 1 1 1 1 1 1 2 2 2 2 2 1 1 1 1 2 2 1 1 2 2 2 3 3 3 3 3 3 3 3
4 3 3 3 3 3 3 2 1 1 1 1 1 1 1 1 1 1 1 1 1 2 2 2 1 1 1 1 1 1 1 1 1 2 2 3 3 3 3 3 3 3 3
5 5 4 3 3 3 3 2 2 1 1 1 1 1 1 1 1 1 1 1 1 1 2 2 2 2 2 1 1 1 1 1 1 1 2 2 3 3 3 3 3 3 3
7 7 6 4 3 4 3 3 2 2 1 1 1 1 1 1 1 1 1 1 1 1 2 2 2 2 2 2 1 1 1 1 1 1 1 2 3 3 3 3 3 3 3
7 7 6 4 4 5 4 3 3 2 1 1 1 1 1 1 1 0 0 1 1 2 2 2 2 2 2 2 2 2 1 1 1 1 1 2 3 3 3 3 3 3 3
5 5 4 4 4 5 5 4 3 2 2 2 2 1 1 1 1 1 1 1 1 1 2 2 2 2 2 2 2 2 2 1 1 1 1 2 2 3 3 3 3 3 3
3 3 3 4 4 4 4 4 3 3 2 2 2 2 1 1 1 1 1 1 1 1 2 2 2 2 2 2 2 2 2 2 2 2 2 2 2 2 3 3 3 3 2
3 4 3 3 3 2 3 3 3 3 3 2 2 1 1 0 0 1 1 1 1 1 1 2 2 2 2 2 1 1 1 2 2 2 1 2 2 2 2 3 3 3 2
3 4 3 2 2 1 1 2 2 3 3 2 2 1 1 0 0 0 0 0 0 1 1 1 2 2 2 2 2 1 1 1 2 1 1 1 1 2 2 2 3 3 2
2 3 3 2 2 2 1 1 2 3 3 2 2 1 0 0 0 0 0 0 0 0 1 1 2 2 2 2 2 1 1 1 1 1 1 1 1 1 1 2 2 3 3
2 2 2 2 2 2 2 2 2 2 3 3 2 1 0 0 0 0 0 0 0 0 0 0 1 2 2 2 2 1 1 1 1 1 1 1 1 1 1 2 2 3 3
2 2 2 3 3 3 3 2 2 2 2 2 2 1 1 0 0 0 0 0 0 0 0 0 0 1 2 2 1 1 1 1 1 1 1 1 1 1 1 1 2 2 3
2 2 2 3 4 4 3 3 2 2 2 2 2 1 1 0 0 0 0 0 0 0 0 0 0 1 1 1 1 1 1 1 1 1 1 1 1 1 1 1 1 2 2
2 2 3 4 5 5 4 4 3 3 2 2 1 1 1 0 0 0 0 0 0 0 0 0 0 0 1 1 1 1 1 1 1 1 1 1 1 1 1 1 1 1 2
3 3 3 4 5 6 5 4 3 2 2 2 1 1 1 0 0 0 0 0 0 0 0 0 0 0 0 1 1 2 2 1 1 0 0 1 1 1 1 1 0 1 1
3 4 4 4 5 5 4 3 2 2 1 1 1 0 0 0 0 0 0 0 0 0 0 0 0 0 0 0 1 1 2 1 1 0 0 0 0 0 0 0 0 0 0
3 4 4 4 5 4 3 2 2 1 1 1 1 0 0 0 0 0 0 0 0 0 0 0 0 0 0 0 0 1 1 1 1 0 0 0 0 0 0 0 0 0 0
3 4 4 4 4 3 3 2 1 1 1 1 0 0 0 0 0 0 0 0 0 0 0 0 0 0 0 0 0 0 1 1 1 0 0 0 0 0 0 0 0 0 0
4 4 5 5 4 3 3 2 2 1 1 0 0 0 0 0 0 0 0 0 0 0 0 0 0 1 0 0 0 0 1 1 1 0 0 0 0 0 0 0 0 0 0
3 3 4 4 4 3 3 2 2 1 0 0 0 0 0 0 0 0 0 0 0 0 0 0 0 1 1 0 0 0 1 1 1 0 0 0 0 0 0 0 0 0 0
1 2 2 3 2 2 2 2 1 1 0 0 0 0 0 0 0 0 0 0 0 0 0 0 0 1 1 0 0 0 0 1 1 0 0 0 0 0 0 0 0 0 0
0 1 1 1 1 1 1 1 0 0 0 0 0 0 0 0 0 0 0 0 0 0 0 0 0 1 1 1 0 0 0 0 0 0 0 0 0 0 0 0 0 0 0
0 0 0 0 0 0 0 0 0 0 0 0 0 0 0 0 0 0 0 0 0 0 0 0 0 0 1 1 1 0 0 0 0 0 0 0 0 0 0 0 0 0 0
0 0 0 0 0 0 0 0 0 0 0 0 0 0 0 0 0 0 0 0 0 0 0 0 0 0 0 1 1 0 0 0 0 0 0 0 0 0 0 0 0 0 0
0 0 0 0 0 0 0 0 0 0 0 0 0 0 0 0 0 0 0 0 0 0 0 0 0 0 0 0 0 0 0 0 0 0 0 0 0 0 0 0 0 0 0
0 0 0 0 0 0 0 0 0 0 0 0 0 0 0 0 0 0 0 0 0 0 0 0 0 0 0 0 0 0 0 0 0 0 0 0 0 0 0 0 0 0 0
Wind_Speed
2 2 2 2 2 1 2 2 2 2 2 3 3 3 3 3 3 3 3 7 7 7 8 8 9 9 9 9 9 9 10 10 10 10 11 11 12 12 12 12 12 12 12
3 2 2 2 2 2 2 2 2 2 2 2 2 2 3 3 3 4 3 5 8 8 8 8 8 9 9 10 10 10 9 10 10 10 11 11 12 13 13 13 13 12 12
3 2 2 2 2 2 1 1 2 1 1 2 2 3 2 3 4 4 4 3 4 7 8 8 8 8 9 9 10 10 10 10 10 11 12 12 13 13 13 14 14 13 13
3 2 2 2 2 1 1 1 1 1 2 2 2 3 2 3 4 4 4 4 3 4 6 9 8 7 8 9 9 10 10 10 10 11 12 12 13 13 13 13 14 13 13
3 2 2 2 1 1 1 2 1 1 2 2 3 3 3 3 3 4 4 4 4 4 4 7 9 9 9 9 10 10 10 10 10 11 12 13 12 13 14 13 14 14 14
2 2 2 2 2 1 1 1 2 1 2 2 3 3 3 3 2 3 3 3 4 5 4 5 4 6 9 9 10 11 10 10 10 11 11 12 12 12 12 13 13 14 14
2 1 1 1 1 1 2 2 1 1 1 0 1 3 3 3 2 3 2 2 3 4 3 4 4 3 4 9 10 11 11 11 11 11 12 12 11 11 11 13 14 14 14
2 2 2 1 1 1 1 1 1 1 1 0 1 1 3 4 3 3 2 2 3 2 3 4 4 4 4 3 6 10 11 12 12 12 12 12 10 11 11 12 13 14 14
3 2 2 2 2 1 1 2 2 2 1 1 1 2 1 2 3 3 2 2 2 2 3 3 4 5 5 4 4 8 10 10 11 13 12 12 11 11 11 11 12 13 14
2 2 2 2 2 2 2 2 1 1 2 1 1 1 2 3 2 3 3 2 3 3 3 3 4 4 5 4 6 9 10 10 11 11 12 12 12 11 12 12 12 12 13
1 2 2 2 2 2 2 1 1 1 1 1 1 1 1 1 2 2 4 4 3 3 3 3 3 4 5 5 5 8 10 10 11 11 11 11 12 12 12 12 12 11 12
1 1 1 1 1 2 2 2 1 1 1 1 1 1 1 1 2 2 3 4 4 4 3 3 3 4 4 4 7 9 11 11 12 12 11 11 12 12 12 12 12 12 12
1 1 0 1 2 2 2 2 1 1 1 1 2 1 2 2 2 2 2 3 3 3 3 3 3 3 3 3 5 9 10 11 12 12 12 12 12 12 13 13 13 12 12
2 1 1 1 2 2 2 1 1 1 1 1 2 2 2 2 2 2 2 2 2 3 3 4 3 3 3 3 5 7 6 9 10 12 13 12 13 13 13 12 12 12 11
1 1 1 2 2 2 1 1 1 1 1 1 2 2 2 2 2 2 2 2 2 3 4 4 3 3 3 3 5 4 4 8 10 11 12 12 13 13 13 12 12 12 12
1 1 1 1 1 1 0 1 1 1 1 2 1 2 2 2 2 2 1 1 2 3 4 3 3 4 3 3 5 4 4 8 9 10 11 12 12 13 13 13 13 13 12
1 1 1 1 0 0 0 0 1 1 1 2 2 2 3 2 2 2 1 1 1 2 3 4 3 3 3 4 4 3 3 3 4 8 9 10 11 12 12 12 12 12 13
1 0 1 1 1 1 0 0 1 1 1 2 2 2 3 2 2 2 1 2 2 2 2 4 3 3 3 4 4 4 3 3 3 6 8 8 9 10 10 11 11 11 12
1 1 1 1 0 0 1 1 1 1 1 2 2 2 2 2 2 2 2 2 2 2 2 2 3 3 3 3 3 3 3 3 4 5 7 8 9 9 10 10 10 10 11
1 1 1 0 0 1 1 1 1 1 1 1 1 1 1 2 2 2 2 2 2 2 2 2 2 3 3 3 2 2 3 3 3 4 4 4 6 8 9 9 10 11 11
1 0 1 1 1 1 1 1 1 1 1 1 2 1 1 2 2 2 1 2 1 1 2 2 2 2 3 3 2 2 2 3 3 2 2 3 2 2 4 7 9 10 11
1 1 1 1 2 2 3 2 1 1 1 1 2 2 2 2 4 4 4 3 2 1 1 1 2 3 4 3 2 2 2 2 3 2 1 3 1 2 3 3 5 7 8
1 1 1 1 2 3 4 4 3 1 1 1 0 1 2 2 3 3 5 5 4 4 3 2 3 4 4 3 2 2 2 2 3 3 1 2 2 2 3 3 5 7 7
1 1 1 1 1 3 4 4 3 2 2 1 1 1 1 2 3 3 3 4 4 4 4 3 3 4 4 4 3 3 3 3 3 3 1 2 2 2 3 3 4 5 6
1 1 1 1 1 2 4 3 3 2 1 2 2 2 2 2 6 4 2 3 4 5 5 5 5 5 5 5 3 1 1 1 3 3 1 2 2 2 2 3 3 3 4
0 1 1 0 0 1 3 2 2 1 1 2 3 3 4 4 6 4 1 1 3 5 4 5 5 6 5 5 4 1 2 1 2 3 2 1 1 1 2 2 2 2 2
Wind_Direction
193 200 210 202 210 211 218 244 259 270 270 265 251 234 223 219 218 212 219 219 217 216 216 222 223 222 227 227 227 228 227 226 223 220 218 216 215 214 214 215 215 214 214
189 188 200 203 212 215 222 222 234 244 260 262 264 251 236 224 225 222 218 226 228 221 222 229 230 231 233 233 231 231 233 230 227 223 222 221 219 218 217 217 217 217 215
179 179 190 205 220 220 227 229 245 248 266 273 270 261 248 241 238 233 222 217 222 225 227 232 237 237 239 238 236 235 234 233 234 230 225 224 223 222 220 219 218 217 215
177 170 186 209 226 215 200 221 241 260 278 279 274 269 255 246 241 236 225 219 215 222 229 232 237 239 241 240 239 240 237 236 237 236 233 229 226 224 222 219 218 215 214
182 173 193 210 207 189 216 245 240 214 258 279 273 268 261 246 242 242 231 223 217 216 220 232 234 235 239 240 239 240 240 237 237 238 238 233 228 225 224 220 219 217 215
187 183 191 204 185 181 230 236 247 244 243 255 279 289 274 257 241 236 235 235 228 223 219 223 228 235 240 244 242 240 241 241 239 237 238 237 231 226 223 221 220 219 218
188 191 218 215 179 196 238 240 235 267 277 286 354 321 311 284 259 246 238 242 245 237 222 221 219 222 239 244 246 243 242 243 243 240 238 238 235 228 224 223 222 222 221
206 197 206 217 204 193 283 257 181 233 266 129 133 4 330 327 309 278 255 242 249 247 239 235 223 221 225 229 243 244 243 242 241 241 239 235 233 228 227 227 227 225 224
220 213 211 205 201 172 224 245 216 191 231 269 174 158 183 255 299 300 277 264 257 253 255 247 235 232 226 225 234 243 243 243 244 242 238 233 230 229 229 230 230 228 226
222 201 196 199 199 202 227 246 224 201 182 245 275 210 200 197 225 298 309 291 275 262 254 254 248 241 233 229 231 234 236 236 240 244 241 236 231 231 230 228 230 234 231
270 224 198 205 220 227 236 245 234 199 169 190 222 248 256 254 218 225 289 301 302 276 258 251 247 245 238 232 231 234 233 230 233 237 239 239 234 231 231 232 230 232 232
294 280 206 186 215 230 238 238 220 202 203 193 215 209 197 211 244 232 256 279 285 284 277 263 252 248 242 234 240 242 235 230 230 231 232 235 235 232 232 236 233 232 234
289 294 304 208 212 225 228 214 200 219 218 209 226 237 229 226 220 213 233 266 276 284 290 280 259 256 255 242 247 253 245 236 232 231 231 231 233 233 232 236 233 231 236
231 235 236 236 230 224 229 217 206 231 216 229 251 251 251 256 237 214 213 236 289 295 292 280 283 261 261 257 257 256 248 244 238 231 230 231 232 232 231 232 232 230 232
227 223 242 250 244 229 215 190 207 248 236 238 254 260 254 264 262 249 228 203 210 274 283 277 279 279 276 266 268 258 254 251 248 241 235 233 233 231 228 227 228 231 229
350 355 310 276 271 267 234 153 227 254 257 262 247 255 264 266 272 269 259 248 214 223 264 267 261 272 282 290 288 273 259 263 256 249 242 237 234 232 230 229 230 229 225
4 358 319 304 299 359 43 78 283 274 274 288 283 262 267 269 271 280 280 280 263 233 260 279 268 283 284 289 295 284 267 257 259 256 252 241 235 233 232 231 229 228 226
325 311 336 357 15 31 30 161 269 291 272 278 280 281 280 285 285 288 286 284 279 260 242 278 291 296 290 290 280 280 285 277 270 266 256 247 241 234 231 231 230 228 225
9 7 34 10 0 348 327 290 262 266 270 267 264 262 276 290 289 284 281 289 287 298 267 262 280 287 299 312 316 301 299 293 289 283 265 254 252 246 238 233 232 230 226
40 11 12 321 284 309 309 303 300 301 315 315 296 282 284 270 262 270 279 285 288 300 297 288 289 303 306 309 323 316 315 305 298 297 290 272 256 248 242 238 233 230 227
30 15 1 350 353 353 336 332 311 357 4 340 336 325 321 325 315 299 289 275 280 287 305 306 301 312 307 320 312 295 296 302 297 286 297 288 271 256 248 243 239 232 225
353 8 7 2 8 3 352 1 30 33 16 357 343 334 331 350 347 340 325 313 288 251 261 267 275 278 278 277 284 286 283 313 301 293 306 292 283 275 271 245 244 237 230
7 8 358 34 31 2 7 12 28 63 44 8 328 306 336 350 344 332 329 335 330 317 283 235 247 263 264 263 268 287 279 258 257 269 273 283 286 280 275 274 257 239 232
338 341 24 56 54 8 8 10 26 55 48 1 323 274 306 316 322 331 323 330 321 313 297 282 248 259 265 263 240 242 250 271 282 283 210 257 281 277 293 290 274 248 233
353 27 67 84 56 348 356 12 40 51 33 345 327 333 322 305 310 327 335 324 321 316 321 323 313 305 302 301 294 316 318 318 302 293 251 208 264 289 295 290 290 277 260
134 93 70 63 86 323 337 7 52 77 26 333 325 323 323 316 314 324 298 288 306 302 317 326 325 326 320 315 312 258 230 248 273 286 279 234 261 294 305 292 298 302 289